FW6919 Weather Reports


Display with metric or nautical units.
time (UTC)temp
F
wind
direction
speed
MPH
gust
MPH
rain 1hr
in
rain 24hr
in
rain mn
in
humidity
%
barometer
mb
20260504043612 69 189 6.0 11.0 0.00 0.00 0.00 55 1016.8
20260504043113 69 200 7.0 12.0 0.00 0.00 0.00 55 1016.8
20260504042613 70 175 4.0 12.0 0.00 0.00 0.00 55 1016.9
20260504042115 70 212 7.0 12.0 0.00 0.00 0.00 55 1016.9
20260504041611 69 166 7.0 12.0 0.00 0.00 0.00 55 1017.1
20260504041116 69 226 5.0 10.0 0.00 0.00 0.00 55 1017.0
20260504040613 70 188 2.0 10.0 0.00 0.00 0.00 55 1017.0
20260504040112 70 213 3.0 10.0 0.00 0.00 0.00 55 1016.9
20260504035612 70 221 2.0 11.0 0.00 0.00 0.00 55 1016.8
20260504035112 70 207 7.0 11.0 0.00 0.00 0.00 54 1016.9
20260504034612 70 226 6.0 9.0 0.00 0.00 0.00 54 1016.8
20260504034112 70 196 4.0 10.0 0.00 0.00 0.00 54 1016.8
20260504033616 70 171 4.0 10.0 0.00 0.00 0.00 53 1016.7
20260504033113 71 181 3.0 10.0 0.00 0.00 0.00 53 1016.8
20260504032610 71 190 3.0 10.0 0.00 0.00 0.00 53 1016.8
20260504032110 71 196 4.0 14.0 0.00 0.00 0.00 52 1016.8
20260504031613 71 189 6.0 14.0 0.00 0.00 0.00 52 1016.7
20260504031112 71 215 6.0 12.0 0.00 0.00 0.00 52 1016.7
20260504030613 71 190 5.0 12.0 0.00 0.00 0.00 51 1016.8
20260504030113 72 173 5.0 15.0 0.00 0.00 0.00 51 1016.6
20260504025613 72 213 9.0 15.0 0.00 0.00 0.00 51 1016.7
20260504025115 72 217 5.0 8.0 0.00 0.00 0.00 50 1016.6
20260504024610 72 211 4.0 9.0 0.00 0.00 0.00 50 1016.7
20260504024113 72 165 6.0 12.0 0.00 0.00 0.00 49 1016.6
20260504023610 72 181 4.0 12.0 0.00 0.00 0.00 49 1016.6
20260504023111 73 196 7.0 11.0 0.00 0.00 0.00 48 1016.6
20260504022612 73 198 6.0 11.0 0.00 0.00 0.00 48 1016.4
20260504022116 73 174 5.0 11.0 0.00 0.00 0.00 47 1016.4
20260504021613 73 209 5.0 14.0 0.00 0.00 0.00 47 1016.5
20260504021112 73 189 5.0 14.0 0.00 0.00 0.00 46 1016.5
20260504020614 74 186 3.0 11.0 0.00 0.00 0.00 46 1016.5
20260504020118 74 192 3.0 12.0 0.00 0.00 0.00 45 1016.5
20260504015618 74 159 8.0 15.0 0.00 0.00 0.00 45 1016.5
20260504015117 74 202 5.0 15.0 0.00 0.00 0.00 45 1016.4
20260504014617 74 169 7.0 18.0 0.00 0.00 0.00 45 1016.5
20260504014116 74 188 12.0 18.0 0.00 0.00 0.00 45 1016.4
20260504013618 74 148 10.0 15.0 0.00 0.00 0.00 45 1016.3
20260504013119 75 229 9.0 16.0 0.00 0.00 0.00 45 1016.2
20260504012616 75 198 6.0 16.0 0.00 0.00 0.00 44 1016.3
20260504012117 75 163 12.0 13.0 0.00 0.00 0.00 44 1016.2
20260504011616 75 209 6.0 14.0 0.00 0.00 0.00 44 1016.1
20260504011116 75 221 5.0 14.0 0.00 0.00 0.00 43 1016.2
20260504010616 76 211 7.0 14.0 0.00 0.00 0.00 43 1016.1
20260504010116 76 213 6.0 11.0 0.00 0.00 0.00 43 1016.0
20260504005616 76 204 8.0 14.0 0.00 0.00 0.00 42 1016.0
20260504005115 76 175 3.0 14.0 0.00 0.00 0.00 41 1016.0
20260504004615 77 201 8.0 15.0 0.00 0.00 0.00 40 1016.1
20260504004117 77 214 6.0 17.0 0.00 0.00 0.00 39 1016.0
20260504003616 77 207 7.0 20.0 0.00 0.00 0.00 39 1016.0
20260504003116 77 190 11.0 20.0 0.00 0.00 0.00 38 1016.0
20260504002616 78 187 8.0 19.0 0.00 0.00 0.00 39 1016.1
20260504002114 78 198 8.0 17.0 0.00 0.00 0.00 39 1016.1
20260504001617 78 197 10.0 17.0 0.00 0.00 0.00 39 1016.2
20260504001115 79 200 6.0 18.0 0.00 0.00 0.00 38 1016.2
20260504000615 79 223 6.0 18.0 0.00 0.00 0.00 38 1016.2
20260504000115 79 196 5.0 14.0 0.00 0.00 0.00 39 1016.1
20260503235616 79 155 8.0 18.0 0.00 0.00 0.00 38 1016.1
20260503235114 79 165 9.0 18.0 0.00 0.00 0.00 38 1016.3
20260503234614 79 204 16.0 18.0 0.00 0.00 0.00 39 1016.2
20260503234113 79 148 6.0 14.0 0.00 0.00 0.00 39 1016.3
20260503233614 80 169 7.0 14.0 0.00 0.00 0.00 39 1016.4
20260503233113 80 188 5.0 16.0 0.00 0.00 0.00 38 1016.2
20260503232614 80 213 7.0 16.0 0.00 0.00 0.00 37 1016.5
20260503232113 80 156 3.0 19.0 0.00 0.00 0.00 37 1016.3
20260503231613 80 219 3.0 19.0 0.00 0.00 0.00 37 1016.5
20260503231112 80 212 4.0 18.0 0.00 0.00 0.00 36 1016.5
20260503230613 80 221 7.0 17.0 0.00 0.00 0.00 36 1016.7
20260503230113 80 221 10.0 17.0 0.00 0.00 0.00 36 1016.8
20260503225614 80 207 7.0 17.0 0.00 0.00 0.00 37 1016.7
20260503225112 80 234 11.0 19.0 0.00 0.00 0.00 37 1016.6
20260503224613 80 206 9.0 19.0 0.00 0.00 0.00 37 1016.6
20260503224114 81 238 6.0 15.0 0.00 0.00 0.00 36 1016.6
20260503223612 81 226 8.0 16.0 0.00 0.00 0.00 36 1016.6
20260503223112 81 180 6.0 16.0 0.00 0.00 0.00 36 1016.6
20260503221111 81 228 6.0 17.0 0.00 0.00 0.00 35 1016.8
20260503220615 81 236 9.0 17.0 0.00 0.00 0.00 36 1016.9
20260503220111 81 192 15.0 16.0 0.00 0.00 0.00 35 1016.9
20260503215641 81 238 5.0 14.0 0.00 0.00 0.00 36 1017.0
20260503204511 81 190 4.0 18.0 0.00 0.00 0.00 35 1018.4
20260503204010 81 219 9.0 17.0 0.00 0.00 0.00 34 1018.5
20260503203513 81 182 8.0 18.0 0.00 0.00 0.00 36 1018.5
20260503203012 81 238 6.0 18.0 0.00 0.00 0.00 34 1018.6
20260503202513 81 219 6.0 17.0 0.00 0.00 0.00 34 1018.7
20260503202016 81 200 8.0 20.0 0.00 0.00 0.00 34 1018.8
20260503201511 81 188 6.0 20.0 0.00 0.00 0.00 35 1018.8
20260503201013 81 173 9.0 15.0 0.00 0.00 0.00 36 1018.8
20260503200511 81 159 4.0 16.0 0.00 0.00 0.00 35 1018.9
20260503200014 81 186 3.0 16.0 0.00 0.00 0.00 36 1019.0
20260503195512 81 178 10.0 14.0 0.00 0.00 0.00 35 1019.0
20260503195013 81 217 7.0 18.0 0.00 0.00 0.00 35 1019.1
20260503194514 81 209 7.0 18.0 0.00 0.00 0.00 35 1019.2
20260503194012 80 197 7.0 16.0 0.00 0.00 0.00 35 1019.2
20260503193514 80 167 4.0 16.0 0.00 0.00 0.00 37 1019.2
20260503193014 81 193 9.0 14.0 0.00 0.00 0.00 35 1019.4
20260503192511 81 200 7.0 14.0 0.00 0.00 0.00 34 1019.3
20260503192013 81 213 8.0 13.0 0.00 0.00 0.00 34 1019.5
20260503191512 81 244 7.0 10.0 0.00 0.00 0.00 38 1019.7
20260503191013 81 240 5.0 15.0 0.00 0.00 0.00 38 1019.7
20260503190512 81 226 3.0 15.0 0.00 0.00 0.00 38 1019.8
20260503190012 80 232 8.0 15.0 0.00 0.00 0.00 40 1019.9
20260503185512 80 209 6.0 16.0 0.00 0.00 0.00 39 1020.0
20260503185012 80 241 5.0 16.0 0.00 0.00 0.00 41 1020.1
20260503184511 80 222 3.0 16.0 0.00 0.00 0.00 41 1020.1
20260503184015 79 193 8.0 16.0 0.00 0.00 0.00 40 1020.3
20260503183510 79 212 7.0 16.0 0.00 0.00 0.00 39 1020.3
20260503183014 79 255 5.0 15.0 0.00 0.00 0.00 41 1020.4
20260503182512 79 237 7.0 15.0 0.00 0.00 0.00 41 1020.5
20260503182011 79 240 10.0 12.0 0.00 0.00 0.00 44 1020.6
20260503181513 79 226 7.0 18.0 0.00 0.00 0.00 44 1020.7
20260503181013 79 223 5.0 18.0 0.00 0.00 0.00 43 1020.9
20260503180513 79 227 8.0 15.0 0.00 0.00 0.00 41 1020.9
20260503180011 79 225 6.0 15.0 0.00 0.00 0.00 45 1020.9
20260503175514 79 240 3.0 16.0 0.00 0.00 0.00 42 1021.2
20260503175015 78 249 10.0 16.0 0.00 0.00 0.00 45 1021.2
20260503174511 78 250 8.0 16.0 0.00 0.00 0.00 45 1021.4
20260503174013 78 239 3.0 14.0 0.00 0.00 0.00 46 1021.3
20260503173512 78 226 3.0 14.0 0.00 0.00 0.00 46 1021.3
20260503173016 78 236 10.0 13.0 0.00 0.00 0.00 45 1021.4
20260503172511 78 261 7.0 12.0 0.00 0.00 0.00 46 1021.5
20260503172013 78 240 4.0 12.0 0.00 0.00 0.00 48 1021.6
20260503171514 78 190 9.0 12.0 0.00 0.00 0.00 47 1021.6
20260503171014 78 242 3.0 11.0 0.00 0.00 0.00 46 1021.7
20260503170512 78 261 6.0 12.0 0.00 0.00 0.00 45 1021.7
20260503150510 70 257 5.0 13.0 0.00 0.00 0.00 58 1022.2
20260503140312 65 234 3.0 7.0 0.00 0.00 0.00 64 1022.3
20260503131355 61 221 5.0 8.0 0.00 0.00 0.00 71 1022.0
20260503130934 61 234 3.0 7.0 0.00 0.00 0.00 71 1022.1
20260503130344 61 220 3.0 7.0 0.00 0.00 0.00 72 1022.0
20260503110528 58 223 4.0 7.0 0.00 0.00 0.00 73 1020.9
20260503090458 59 237 1.0 5.0 0.00 0.00 0.00 71 1020.8
20260503081530 60 234 3.0 6.0 0.00 0.00 0.00 67 1020.8
20260503080956 60 239 5.0 6.0 0.00 0.00 0.00 67 1020.9
20260503080454 60 227 3.0 6.0 0.00 0.00 0.00 67 1020.8
20260503072828 60 232 2.0 7.0 0.00 0.00 0.00 70 1021.1
20260503072325 59 220 3.0 9.0 0.00 0.00 0.00 70 1021.1
20260503071828 59 215 4.0 9.0 0.00 0.00 0.00 72 1021.1
20260503071255 59 221 4.0 5.0 0.00 0.00 0.00 73 1021.2
20260503070754 58 244 3.0 4.0 0.00 0.00 0.00 74 1021.2
20260503070323 58 245 1.0 4.0 0.00 0.00 0.00 74 1021.2
20260503060253 61 0 0.0 3.0 0.00 0.00 0.00 68 1021.1
20260503054754 61 248 3.0 5.0 0.00 0.00 0.00 67 1020.8
20260503054326 62 257 2.0 4.0 0.00 0.00 0.00 66 1020.9
20260503053749 62 257 2.0 4.0 0.00 0.00 0.00 66 1021.0
20260503053253 62 258 2.0 4.0 0.00 0.00 0.00 66 1021.0
20260503052827 62 259 4.0 4.0 0.00 0.00 0.00 66 1020.9
20260503052254 62 260 2.0 3.0 0.00 0.00 0.00 66 1020.9
20260503051755 62 261 2.0 4.0 0.00 0.00 0.00 65 1020.9
20260503051255 62 261 1.0 4.0 0.00 0.00 0.00 65 1020.8
20260503050825 63 261 3.0 4.0 0.00 0.00 0.00 66 1020.8
20260503050325 63 261 2.0 4.0 0.00 0.00 0.00 66 1020.7
20260503045853 63 262 2.0 6.0 0.00 0.00 0.00 66 1020.8
20260503045425 62 275 1.0 6.0 0.00 0.00 0.00 66 1020.7
20260503044925 62 275 4.0 6.0 0.00 0.00 0.00 67 1020.6
20260503044422 62 277 3.0 4.0 0.00 0.00 0.00 68 1020.6